Location: Catstown
(52.4386°N, 7.2633°W)
Time: 12:13:44
(UTC+00:00)

Spot 2 Rocket - Pass Details

Date: 18 September 2020
Orbit: 758 x 772 km, 98.6° (Epoch: 22 October)

Event Time Altitude Azimuth Distance (km) Brightness Sun altitude
Exits shadow 21:28:19 74° 161° (SSE) 795 3.3 -24.9°
Maximum altitude 21:28:48 89° 80° (E) 767 3.4 -25.0°
Drops below altitude 10° 21:33:53 10° 345° (NNW) 2,301 6.7 -25.6°
Sets 21:36:12 0° 345° (NNW) 3,231 7.6 -25.8°
